Time,TemperatureF,DewpointF,PressureIn,WindDirection,WindDirectionDegrees,WindSpeedMPH,WindSpeedGustMPH,Humidity,HourlyPrecipIn,Conditions,Clouds,dailyrainin,SolarRadiationWatts/m^2,SoftwareType,DateUTC
2013-02-26 00:11:00,51.0,28.0,-100.00,ESE,104,12.0,13.0,40,-99.99,,,0.00,0.000000,,2013-02-26 08:11:00,
2013-02-26 01:11:00,53.0,20.0,-100.00,East,95,13.0,17.0,27,-99.99,,,0.00,0.000000,,2013-02-26 09:11:00,
2013-02-26 01:21:00,53.0,20.0,-100.00,East,95,13.0,17.0,27,-99.99,,,0.00,0.000000,,2013-02-26 09:21:00,
2013-02-26 02:11:00,53.0,20.0,-100.00,East,91,17.0,21.0,27,-99.99,,,0.00,1.000000,,2013-02-26 10:11:00,
2013-02-26 02:21:00,53.0,20.0,-100.00,East,91,17.0,21.0,27,-99.99,,,0.00,1.000000,,2013-02-26 10:21:00,
2013-02-26 03:11:00,52.0,21.0,-100.00,East,88,19.0,26.0,29,-99.99,,,0.00,0.000000,,2013-02-26 11:11:00,
2013-02-26 03:21:00,52.0,21.0,-100.00,East,88,19.0,26.0,29,-99.99,,,0.00,0.000000,,2013-02-26 11:21:00,
2013-02-26 04:11:00,51.0,21.0,-100.00,East,86,17.0,31.0,30,-99.99,,,0.00,0.000000,,2013-02-26 12:11:00,
2013-02-26 04:22:00,51.0,21.0,-100.00,East,86,17.0,31.0,30,-99.99,,,0.00,0.000000,,2013-02-26 12:22:00,
2013-02-26 04:32:00,51.0,21.0,-100.00,East,86,17.0,31.0,30,-99.99,,,0.00,0.000000,,2013-02-26 12:32:00,
2013-02-26 05:11:00,51.0,21.0,-100.00,East,90,21.0,28.0,31,-99.99,,,0.00,0.000000,,2013-02-26 13:11:00,
2013-02-26 05:21:00,51.0,21.0,-100.00,East,90,21.0,28.0,31,-99.99,,,0.00,0.000000,,2013-02-26 13:21:00,
2013-02-26 06:11:00,51.0,22.0,-100.00,East,92,23.0,31.0,32,-99.99,,,0.00,0.000000,,2013-02-26 14:11:00,
2013-02-26 06:21:00,51.0,22.0,-100.00,East,92,23.0,31.0,32,-99.99,,,0.00,0.000000,,2013-02-26 14:21:00,
2013-02-26 06:31:00,51.0,22.0,-100.00,East,92,23.0,31.0,32,-99.99,,,0.00,0.000000,,2013-02-26 14:31:00,
2013-02-26 06:41:00,51.0,22.0,-100.00,East,92,23.0,31.0,32,-99.99,,,0.00,0.000000,,2013-02-26 14:41:00,
2013-02-26 07:11:00,52.0,22.0,-100.00,East,87,21.0,32.0,30,-99.99,,,-99.99,5.000000,,2013-02-26 15:11:00,
2013-02-26 07:21:00,52.0,22.0,-100.00,East,87,21.0,32.0,30,-99.99,,,-99.99,5.000000,,2013-02-26 15:21:00,
2013-02-26 08:11:00,53.0,22.0,-100.00,ENE,71,21.0,34.0,29,0.00,,,0.00,141.000000,,2013-02-26 16:11:00,
2013-02-26 08:22:00,53.0,22.0,-100.00,ENE,71,21.0,34.0,29,0.00,,,0.00,141.000000,,2013-02-26 16:22:00,
2013-02-26 08:31:00,53.0,22.0,-100.00,ENE,71,21.0,34.0,29,0.00,,,0.00,141.000000,,2013-02-26 16:31:00,
2013-02-26 08:41:00,53.0,22.0,-100.00,ENE,71,21.0,34.0,29,0.00,,,0.00,141.000000,,2013-02-26 16:41:00,
2013-02-26 09:11:00,57.0,21.0,-100.00,NE,35,19.0,32.0,24,0.00,,,0.00,352.000000,,2013-02-26 17:11:00,
2013-02-26 09:21:00,57.0,21.0,-100.00,NE,35,19.0,32.0,24,0.00,,,0.00,352.000000,,2013-02-26 17:21:00,
2013-02-26 09:32:00,57.0,21.0,-100.00,NE,35,19.0,32.0,24,0.00,,,0.00,352.000000,,2013-02-26 17:32:00,
2013-02-26 09:41:00,57.0,21.0,-100.00,NE,35,19.0,32.0,24,0.00,,,0.00,352.000000,,2013-02-26 17:41:00,
2013-02-26 10:12:00,60.0,20.0,-100.00,NE,43,24.0,41.0,21,0.00,,,0.00,536.000000,,2013-02-26 18:12:00,
2013-02-26 10:21:00,60.0,20.0,-100.00,NE,43,24.0,41.0,21,0.00,,,0.00,536.000000,,2013-02-26 18:21:00,
2013-02-26 10:32:00,60.0,20.0,-100.00,NE,43,24.0,41.0,21,0.00,,,0.00,536.000000,,2013-02-26 18:32:00,
2013-02-26 10:42:00,60.0,20.0,-100.00,NE,43,24.0,41.0,21,0.00,,,0.00,536.000000,,2013-02-26 18:42:00,
2013-02-26 11:11:00,62.0,23.0,-100.00,NE,55,22.0,38.0,22,0.00,,,0.00,677.000000,,2013-02-26 19:11:00,
2013-02-26 11:22:00,62.0,23.0,-100.00,NE,55,22.0,38.0,22,0.00,,,0.00,677.000000,,2013-02-26 19:22:00,
2013-02-26 11:31:00,62.0,23.0,-100.00,NE,55,22.0,38.0,22,0.00,,,0.00,677.000000,,2013-02-26 19:31:00,
2013-02-26 11:41:00,62.0,23.0,-100.00,NE,55,22.0,38.0,22,0.00,,,0.00,677.000000,,2013-02-26 19:41:00,
2013-02-26 12:11:00,63.0,18.0,-100.00,ENE,69,22.0,36.0,17,0.00,,,0.00,756.000000,,2013-02-26 20:11:00,
2013-02-26 12:21:00,63.0,18.0,-100.00,ENE,69,22.0,36.0,17,0.00,,,0.00,756.000000,,2013-02-26 20:21:00,
2013-02-26 12:31:00,63.0,18.0,-100.00,ENE,69,22.0,36.0,17,0.00,,,0.00,756.000000,,2013-02-26 20:31:00,
2013-02-26 12:41:00,63.0,18.0,-100.00,ENE,69,22.0,36.0,17,0.00,,,0.00,756.000000,,2013-02-26 20:41:00,
2013-02-26 14:11:00,65.0,13.0,-100.00,ENE,72,31.0,44.0,13,-99.99,,,0.00,740.000000,,2013-02-26 22:11:00,
2013-02-26 14:21:00,65.0,13.0,-100.00,ENE,72,31.0,44.0,13,-99.99,,,0.00,740.000000,,2013-02-26 22:21:00,
2013-02-26 14:31:00,65.0,13.0,-100.00,ENE,72,31.0,44.0,13,-99.99,,,0.00,740.000000,,2013-02-26 22:31:00,
2013-02-26 14:41:00,65.0,13.0,-100.00,ENE,72,31.0,44.0,13,-99.99,,,0.00,740.000000,,2013-02-26 22:41:00,
2013-02-26 15:11:00,65.0,13.0,-100.00,ENE,68,25.0,44.0,13,0.00,,,0.00,632.000000,,2013-02-26 23:11:00,
2013-02-26 15:21:00,65.0,13.0,-100.00,ENE,68,25.0,44.0,13,0.00,,,0.00,632.000000,,2013-02-26 23:21:00,
2013-02-26 15:31:00,65.0,13.0,-100.00,ENE,68,25.0,44.0,13,0.00,,,0.00,632.000000,,2013-02-26 23:31:00,
2013-02-26 15:41:00,65.0,13.0,-100.00,ENE,68,25.0,44.0,13,0.00,,,0.00,632.000000,,2013-02-26 23:41:00,
2013-02-26 16:11:00,65.0,13.0,-100.00,East,79,25.0,39.0,13,0.00,,,0.00,472.000000,,2013-02-27 00:11:00,
2013-02-26 16:21:00,65.0,13.0,-100.00,East,79,25.0,39.0,13,0.00,,,0.00,472.000000,,2013-02-27 00:21:00,
2013-02-26 16:31:00,65.0,13.0,-100.00,East,79,25.0,39.0,13,0.00,,,0.00,472.000000,,2013-02-27 00:31:00,
2013-02-26 16:41:00,65.0,13.0,-100.00,East,79,25.0,39.0,13,0.00,,,0.00,472.000000,,2013-02-27 00:41:00,
2013-02-26 17:11:00,64.0,12.0,-100.00,ENE,70,19.0,32.0,13,0.00,,,0.00,277.000000,,2013-02-27 01:11:00,
2013-02-26 17:21:00,64.0,12.0,-100.00,ENE,70,19.0,32.0,13,0.00,,,0.00,277.000000,,2013-02-27 01:21:00,
2013-02-26 17:31:00,64.0,12.0,-100.00,ENE,70,19.0,32.0,13,0.00,,,0.00,277.000000,,2013-02-27 01:31:00,
2013-02-26 17:41:00,64.0,12.0,-100.00,ENE,70,19.0,32.0,13,0.00,,,0.00,277.000000,,2013-02-27 01:41:00,
2013-02-26 18:13:00,63.0,11.0,-100.00,ENE,75,20.0,30.0,13,0.00,,,0.00,76.000000,,2013-02-27 02:13:00,
2013-02-26 18:22:00,63.0,11.0,-100.00,ENE,75,20.0,30.0,13,0.00,,,0.00,76.000000,,2013-02-27 02:22:00,
2013-02-26 18:32:00,63.0,11.0,-100.00,ENE,75,20.0,30.0,13,0.00,,,0.00,76.000000,,2013-02-27 02:32:00,
2013-02-26 18:41:00,63.0,11.0,-100.00,ENE,75,20.0,30.0,13,0.00,,,0.00,76.000000,,2013-02-27 02:41:00,
2013-02-26 19:11:00,61.0,10.0,-100.00,ENE,66,12.0,26.0,13,0.00,,,0.00,1.000000,,2013-02-27 03:11:00,
2013-02-26 19:21:00,61.0,10.0,-100.00,ENE,66,12.0,26.0,13,0.00,,,0.00,1.000000,,2013-02-27 03:21:00,
2013-02-26 19:31:00,61.0,10.0,-100.00,ENE,66,12.0,26.0,13,0.00,,,0.00,1.000000,,2013-02-27 03:31:00,
2013-02-26 19:41:00,61.0,10.0,-100.00,ENE,66,12.0,26.0,13,0.00,,,0.00,1.000000,,2013-02-27 03:41:00,
2013-02-26 20:11:00,59.0,23.0,-100.00,ENE,66,14.0,20.0,25,0.00,,,0.00,1.000000,,2013-02-27 04:11:00,
2013-02-26 20:21:00,59.0,23.0,-100.00,ENE,66,14.0,20.0,25,0.00,,,0.00,1.000000,,2013-02-27 04:21:00,
2013-02-26 20:31:00,59.0,23.0,-100.00,ENE,66,14.0,20.0,25,0.00,,,0.00,1.000000,,2013-02-27 04:31:00,
2013-02-26 20:41:00,59.0,23.0,-100.00,ENE,66,14.0,20.0,25,0.00,,,0.00,1.000000,,2013-02-27 04:41:00,
2013-02-26 21:11:00,58.0,19.0,-100.00,NE,54,14.0,21.0,22,0.00,,,0.00,0.000000,,2013-02-27 05:11:00,
2013-02-26 21:22:00,58.0,19.0,-100.00,NE,54,14.0,21.0,22,0.00,,,0.00,0.000000,,2013-02-27 05:22:00,
2013-02-26 21:32:00,58.0,19.0,-100.00,NE,54,14.0,21.0,22,0.00,,,0.00,0.000000,,2013-02-27 05:32:00,
2013-02-26 21:41:00,58.0,19.0,-100.00,NE,54,14.0,21.0,22,0.00,,,0.00,0.000000,,2013-02-27 05:41:00,
2013-02-26 22:11:00,56.0,21.0,-100.00,East,91,18.0,25.0,25,0.00,,,0.00,1.000000,,2013-02-27 06:11:00,
2013-02-26 22:21:00,56.0,21.0,-100.00,East,91,18.0,25.0,25,0.00,,,0.00,1.000000,,2013-02-27 06:21:00,
2013-02-26 22:32:00,56.0,21.0,-100.00,East,91,18.0,25.0,25,0.00,,,0.00,1.000000,,2013-02-27 06:32:00,
2013-02-26 22:41:00,56.0,21.0,-100.00,East,91,18.0,25.0,25,0.00,,,0.00,1.000000,,2013-02-27 06:41:00,
2013-02-26 23:12:00,56.0,17.0,-100.00,East,91,23.0,27.0,21,0.00,,,0.00,0.000000,,2013-02-27 07:12:00,
2013-02-26 23:21:00,56.0,17.0,-100.00,East,91,23.0,27.0,21,0.00,,,0.00,0.000000,,2013-02-27 07:21:00,
2013-02-26 23:31:00,56.0,17.0,-100.00,East,91,23.0,27.0,21,0.00,,,0.00,0.000000,,2013-02-27 07:31:00,
2013-02-26 23:41:00,56.0,17.0,-100.00,East,91,23.0,27.0,21,0.00,,,0.00,0.000000,,2013-02-27 07:41:00,